Weather History for Shahre-Kord, Iran

Change the Weather History Date:

Tuesday, February 12, 2013

  Actual Average Record
Temperature  
Mean Temperature 38 °F -  
Max Temperature 51 °F - - ()
Min Temperature 26 °F - - ()
Degree Days  
Heating Degree Days 26    
Moisture  
Dew Point 29 °F    
Average Humidity 66    
Maximum Humidity 93    
Minimum Humidity 31    
Precipitation  
Precipitation 0.00 in - - ()
Sea Level Pressure  
Sea Level Pressure 30.05 in    
Wind  
Wind Speed 4 mph ()    
Max Wind Speed 21 mph    
Max Gust Speed -    
Visibility 6.2 miles    
Events      
T = Trace of Precipitation, MM = Missing Value Source: Averaged Metar Reports

Daily Weather History Graph

Daily Weather History Graph

Search for Another Location

Airport:

Trip Planner

Search our weather history database for the weather conditions in past years. The results will help you decide how hot, cold, wet, or windy it might be!

Date:

Astronomy

Feb. 12, 2013 Rise Set
Actual Time 6:52 AM IRST 5:50 PM IRST
Civil Twilight 6:26 AM IRST 6:15 PM IRST
Nautical Twilight 5:58 AM IRST 6:44 PM IRST
Astronomical Twilight 5:29 AM IRST 7:12 PM IRST
Moon 7:47 AM IRST (2/12) 8:13 PM IRST (2/12)
Length of Visible Light 11h 48m
Length of Day
10h 57m
Waxing Crescent, 5% of the Moon is Illuminated
Feb 12
Waxing Crescent
Feb 18
First Quarter
Feb 25
Full
Mar 5
Last Quarter
Mar 11
New

Hourly Weather History & Observations

Time (IRST) Temp. Windchill Dew Point Humidity Pressure Visibility Wind Dir Wind Speed Gust Speed Precip Events Conditions
12:30 AM 32.0 °F - 30.2 °F 93% 30.09 in 6.2 mi Calm Calm - N/A   Partly Cloudy
1:30 AM 32.0 °F - 30.2 °F 93% 30.09 in 6.2 mi Calm Calm - N/A   Partly Cloudy
2:30 AM - - - N/A% 30.06 in 6.2 mi Calm Calm - N/A   Partly Cloudy
3:30 AM 31 °F - 30 °F 93% 30.07 in 6 mi Calm Calm - -   Scattered Clouds
3:30 AM 32.0 °F - 30.2 °F 93% 30.06 in 6.2 mi Calm Calm - N/A   Partly Cloudy
4:30 AM 28.4 °F - 26.6 °F 93% 30.06 in 6.2 mi Calm Calm - N/A   Partly Cloudy
5:30 AM 28.4 °F - 26.6 °F 93% 30.06 in 6.2 mi Calm Calm - N/A   Partly Cloudy
6:30 AM 26.6 °F - 24.8 °F 93% 30.06 in 6.2 mi Calm Calm - N/A   Scattered Clouds
7:30 AM 30.2 °F - 26.6 °F 86% 30.04 in - Calm Calm - N/A   Clear
8:30 AM 35.6 °F - 28.4 °F 75% 30.06 in 6.2 mi Calm Calm - N/A   Partly Cloudy
9:30 AM 46 °F - 27 °F 35% 29.95 in 6 mi Calm Calm - -   Partly Cloudy
9:30 AM 46.4 °F - 26.6 °F 46% 30.06 in 6.2 mi Calm Calm - N/A   Scattered Clouds
10:30 AM 50.0 °F - 30.2 °F 47% 30.06 in 6.2 mi SSW 16.1 mph - N/A   Scattered Clouds
11:30 AM 51.8 °F - 30.2 °F 44% 30.06 in 6.2 mi WSW 16.1 mph - N/A   Scattered Clouds
12:30 PM 51.8 °F - 24.8 °F 35% 30.04 in 6.2 mi SW 20.7 mph - N/A   Scattered Clouds
1:30 PM 50.0 °F - 26.6 °F 40% 30.04 in 6.2 mi SSW 13.8 mph - N/A   Mostly Cloudy
2:30 PM 48.2 °F - 32.0 °F 54% 30.04 in 6.2 mi SW 11.5 mph - N/A   Scattered Clouds
3:30 PM 51 °F - 30 °F 31% 29.93 in 6 mi SW 13.4 mph - -   Partly Cloudy
3:30 PM 50.0 °F - 30.2 °F 47% 30.01 in 6.2 mi SW 13.8 mph - N/A   Partly Cloudy
4:30 PM 48.2 °F - 26.6 °F 43% 30.04 in 6.2 mi West 16.1 mph - N/A   Scattered Clouds
5:30 PM 41.0 °F 32.2 °F 30.2 °F 65% 30.04 in 6.2 mi WNW 18.4 mph - N/A   Scattered Clouds
6:30 PM 41.0 °F 33.5 °F 28.4 °F 61% 30.06 in 6.2 mi WSW 13.8 mph - N/A   Partly Cloudy
7:30 PM 37.4 °F 28.2 °F 30.2 °F 75% 30.09 in 6.2 mi WNW 16.1 mph - N/A   Partly Cloudy
8:30 PM 35.6 °F 27.5 °F 26.6 °F 70% 30.09 in 6.2 mi West 11.5 mph - N/A   Partly Cloudy
9:30 PM 37 °F - 29 °F 62% 30.00 in 6 mi NNE 6.7 mph - -   Partly Cloudy
9:30 PM 37.4 °F 32.1 °F 28.4 °F 70% 30.09 in 6.2 mi NNE 6.9 mph - N/A   Partly Cloudy
10:30 PM 37.4 °F - 33.8 °F 87% 30.09 in 6.2 mi Calm Calm - N/A   Scattered Clouds
11:30 PM 35.6 °F - 26.6 °F 70% 30.09 in 6.2 mi Calm Calm - N/A   Scattered Clouds